Find Starlink 11262

NORAD ID: 62009 Int'l Des: 2024-213 Owner: SPXS Country: US Constellation: starlink operational
LEOCIRCULAR

实时位置

正在加载3D地球...

关于 Starlink 11262

正在加载描述...

即将过境

Passes for default location (London). Set your location on the main map for personalized predictions.

高度历史

Loading altitude history...

两行轨道根数

1 62009U 24213B 26130.20894583 .00100807 00000-0 82573-3 0 9994
2 62009 53.1567 98.2804 0001084 101.3030 258.8110 15.69742519 84576
Epoch: May 10, 2026 • Age: 12 hours

当前状态

高度 361.6 km
速度 7.69 km/s
星下点 -6.48°S, 35.66°W
发射日期 Nov 18, 2024
运行时间 1.4 years
类型 internet

技术详情

分类 Payload
质量 960.00 kg
干质量 910.00 kg
总质量 960.00 kg
长度 0.30 m
直径 4.10 m
跨度 29.00 m
形状 Box + pan
制造商 SPXS
平台类型 Starlink V2MD
阶段状态 In Orbit
所有者/国家 SPXS/US

Most Searched